JBU381 KBOS-KRIC

Flight info

Callsign JBU381
Flight time N/A
Altitude 34000
Route SSOXS7 SSOXS Q167 ZJAAY ARICE JAMIE
Aircraft A320/M-SDE3FGHIRWY/LB1

Departure

Time 2026-05-08 00:17
Airport Boston Logan International Airport (KBOS)

Arrival

Time N/A
Airport Richmond International Airport (KRIC)
Time Latitude Longitude Altitude Speed Heading
2026-05-07 23:42 42.36770 -71.01680 26 ft 0 kts 209°
2026-05-08 00:04 42.36788 -71.01666 32 ft 4 kts 209°
2026-05-08 00:04 42.36811 -71.01648 31 ft 4 kts 209°
2026-05-08 00:05 42.36829 -71.01635 30 ft 0 kts 209°
2026-05-08 00:05 42.36818 -71.01659 26 ft 4 kts 266°
2026-05-08 00:05 42.36832 -71.01680 28 ft 4 kts 323°
2026-05-08 00:05 42.36855 -71.01696 30 ft 4 kts 349°
2026-05-08 00:06 42.36876 -71.01683 27 ft 2 kts 33°
2026-05-08 00:06 42.36897 -71.01664 26 ft 4 kts 33°
2026-05-08 00:06 42.36920 -71.01644 25 ft 4 kts 33°
2026-05-08 00:06 42.36932 -71.01633 30 ft 0 kts 33°
2026-05-08 00:09 42.36942 -71.01625 28 ft 5 kts 33°
2026-05-08 00:09 42.37000 -71.01578 29 ft 14 kts 30°
2026-05-08 00:09 42.37013 -71.01462 25 ft 14 kts 160°
2026-05-08 00:09 42.36950 -71.01362 30 ft 18 kts 132°
2026-05-08 00:10 42.36846 -71.01222 29 ft 25 kts 139°
2026-05-08 00:10 42.36693 -71.01161 27 ft 25 kts 201°
2026-05-08 00:10 42.36510 -71.01250 28 ft 31 kts 199°
2026-05-08 00:10 42.36333 -71.01296 27 ft 18 kts 143°
2026-05-08 00:11 42.36266 -71.01159 28 ft 18 kts 120°
2026-05-08 00:11 42.36214 -71.01007 27 ft 18 kts 114°
2026-05-08 00:11 42.36189 -71.00932 28 ft 0 kts 114°
2026-05-08 00:12 42.36181 -71.00909 27 ft 6 kts 114°
2026-05-08 00:12 42.36149 -71.00810 29 ft 16 kts 114°
2026-05-08 00:12 42.36098 -71.00629 29 ft 25 kts 108°
2026-05-08 00:12 42.36032 -71.00362 29 ft 34 kts 108°
2026-05-08 00:13 42.35966 -71.00120 28 ft 13 kts 114°
2026-05-08 00:13 42.35941 -71.00070 28 ft 1 kts 128°
2026-05-08 00:13 42.35922 -71.00039 26 ft 3 kts 132°
2026-05-08 00:13 42.35917 -71.00032 28 ft 3 kts 133°
2026-05-08 00:14 42.35909 -71.00021 28 ft 0 kts 134°
2026-05-08 00:14 42.35881 -70.99983 26 ft 15 kts 135°
2026-05-08 00:15 42.35773 -70.99836 30 ft 25 kts 134°
2026-05-08 00:15 42.35648 -70.99668 28 ft 26 kts 135°
2026-05-08 00:15 42.35513 -70.99488 25 ft 26 kts 131°
2026-05-08 00:15 42.35493 -70.99394 25 ft 1 kts 85°
2026-05-08 00:16 42.35495 -70.99376 25 ft 3 kts 81°
2026-05-08 00:16 42.35508 -70.99304 25 ft 14 kts 68°
2026-05-08 00:16 42.35582 -70.99321 27 ft 0 kts 316°
2026-05-08 00:16 42.35706 -70.99491 30 ft 59 kts 314°
2026-05-08 00:17 42.36142 -71.00073 23 ft 114 kts 315°
2026-05-08 00:17 42.36802 -71.00953 174 ft 143 kts 312°
2026-05-08 00:17 42.37562 -71.01917 556 ft 157 kts 314°
2026-05-08 00:17 42.38285 -71.03047 1129 ft 161 kts 299°
2026-05-08 00:18 42.38821 -71.04393 1719 ft 166 kts 298°
2026-05-08 00:18 42.39373 -71.05822 2155 ft 177 kts 297°
2026-05-08 00:18 42.39950 -71.07343 2617 ft 186 kts 297°
2026-05-08 00:18 42.40524 -71.08948 3124 ft 193 kts 291°
2026-05-08 00:19 42.40769 -71.10776 3579 ft 209 kts 264°
2026-05-08 00:19 42.40191 -71.12692 4003 ft 235 kts 239°
2026-05-08 00:19 42.39201 -71.14565 4559 ft 253 kts 236°
2026-05-08 00:19 42.38114 -71.16448 5368 ft 260 kts 234°
2026-05-08 00:20 42.36818 -71.18240 6233 ft 268 kts 217°
2026-05-08 00:20 42.35121 -71.19312 7071 ft 276 kts 197°
2026-05-08 00:20 42.33210 -71.19533 7911 ft 285 kts 177°
2026-05-08 00:20 42.31268 -71.18827 8765 ft 293 kts 163°
2026-05-08 00:21 42.29339 -71.17884 9604 ft 297 kts 164°
2026-05-08 00:21 42.27387 -71.16909 10306 ft 304 kts 162°
2026-05-08 00:21 42.25409 -71.15577 10524 ft 332 kts 153°
2026-05-08 00:21 42.23475 -71.13649 10687 ft 359 kts 142°
2026-05-08 00:22 42.21548 -71.11365 10972 ft 375 kts 143°
2026-05-08 00:22 42.19564 -71.09029 11546 ft 381 kts 143°
2026-05-08 00:22 42.17549 -71.06673 12172 ft 385 kts 144°
2026-05-08 00:22 42.15503 -71.04304 12827 ft 387 kts 147°
2026-05-08 00:23 42.13323 -71.02191 13487 ft 388 kts 152°
2026-05-08 00:23 42.11095 -71.00116 14099 ft 390 kts 153°
2026-05-08 00:23 42.08854 -70.98031 14717 ft 392 kts 153°
2026-05-08 00:23 42.06612 -70.95940 15332 ft 393 kts 153°
2026-05-08 00:24 42.04357 -70.93836 15929 ft 395 kts 154°
2026-05-08 00:24 42.02097 -70.91725 16531 ft 397 kts 154°
2026-05-08 00:24 41.99821 -70.89601 17115 ft 399 kts 155°
2026-05-08 00:24 41.97532 -70.87470 17672 ft 401 kts 155°
2026-05-08 00:25 41.95228 -70.85332 18212 ft 404 kts 155°
2026-05-08 00:25 41.92905 -70.83180 18720 ft 407 kts 155°
2026-05-08 00:25 41.90560 -70.81021 19212 ft 408 kts 157°
2026-05-08 00:25 41.88082 -70.79277 19688 ft 398 kts 168°
2026-05-08 00:26 41.85497 -70.78251 20165 ft 388 kts 179°
2026-05-08 00:26 41.82846 -70.77923 20628 ft 378 kts 189°
2026-05-08 00:26 41.80259 -70.78271 21086 ft 371 kts 199°
2026-05-08 00:26 41.77808 -70.79231 21491 ft 365 kts 208°
2026-05-08 00:27 41.75548 -70.80733 21944 ft 362 kts 215°
2026-05-08 00:27 41.73350 -70.82404 22390 ft 364 kts 215°
2026-05-08 00:27 41.71140 -70.84072 22839 ft 366 kts 215°
2026-05-08 00:27 41.68906 -70.85745 23271 ft 369 kts 215°
2026-05-08 00:28 41.66655 -70.87421 23639 ft 371 kts 214°
2026-05-08 00:28 41.64390 -70.89107 24022 ft 374 kts 215°
2026-05-08 00:28 41.62113 -70.90804 24348 ft 376 kts 215°
2026-05-08 00:28 41.59818 -70.92517 24665 ft 379 kts 215°
2026-05-08 00:29 41.57515 -70.94241 25007 ft 380 kts 216°
2026-05-08 00:29 41.55367 -70.96267 25355 ft 376 kts 225°
2026-05-08 00:29 41.53540 -70.98733 25717 ft 373 kts 233°
2026-05-08 00:29 41.52039 -71.01554 26077 ft 373 kts 238°
2026-05-08 00:30 41.50601 -71.04449 26430 ft 375 kts 238°
2026-05-08 00:30 41.49171 -71.07314 26782 ft 377 kts 238°
2026-05-08 00:30 41.47692 -71.10266 27132 ft 379 kts 238°
2026-05-08 00:30 41.46222 -71.13189 27471 ft 380 kts 238°
2026-05-08 00:31 41.44766 -71.16082 27861 ft 380 kts 238°
2026-05-08 00:31 41.43299 -71.18996 28397 ft 377 kts 238°
2026-05-08 00:31 41.41841 -71.21890 28946 ft 375 kts 238°
2026-05-08 00:31 41.40384 -71.24776 29485 ft 373 kts 238°
2026-05-08 00:32 41.38941 -71.27634 29999 ft 371 kts 238°
2026-05-08 00:32 41.37504 -71.30482 30447 ft 369 kts 238°
2026-05-08 00:32 41.36074 -71.33311 30882 ft 368 kts 238°
2026-05-08 00:32 41.34647 -71.36129 31320 ft 366 kts 238°
2026-05-08 00:33 41.33226 -71.38941 31763 ft 365 kts 238°
2026-05-08 00:33 41.31814 -71.41737 32209 ft 363 kts 238°
2026-05-08 00:33 41.30411 -71.44520 32655 ft 362 kts 238°
2026-05-08 00:33 41.29014 -71.47291 33103 ft 360 kts 238°
2026-05-08 00:34 41.27616 -71.50057 33555 ft 359 kts 238°
2026-05-08 00:34 41.26694 -71.51877 33778 ft 359 kts 238°
2026-05-08 00:34 41.23395 -71.58373 33872 ft 366 kts 239°
2026-05-08 00:35 41.21023 -71.63028 33859 ft 366 kts 239°
2026-05-08 00:35 41.18161 -71.68637 33859 ft 367 kts 239°
2026-05-08 00:36 41.15311 -71.74206 33858 ft 367 kts 239°
2026-05-08 00:36 41.12453 -71.79814 33861 ft 367 kts 239°
2026-05-08 00:37 41.09603 -71.85430 33869 ft 367 kts 239°
2026-05-08 00:38 41.05321 -71.93837 33912 ft 367 kts 239°
2026-05-08 00:38 41.02700 -71.99600 33907 ft 364 kts 247°
2026-05-08 00:39 41.00571 -72.05682 33897 ft 364 kts 246°
2026-05-08 00:39 40.98435 -72.11761 33851 ft 364 kts 246°
2026-05-08 00:40 40.96290 -72.17837 33860 ft 365 kts 246°
2026-05-08 00:40 40.94142 -72.23877 33859 ft 365 kts 246°
2026-05-08 00:41 40.91931 -72.29917 33894 ft 367 kts 242°